GW5741 Weather Reports


time (UTC)temp
C
wind
direction
speed
KPH
gust
KPH
rain 1hr
cm
rain 24hr
cm
rain mn
cm
humidity
%
barometer
mb
20260504150949 18 272 1.6 8.0 0.00 0.00 0.00 40 1012.4
20260504150451 18 168 3.2 9.7 0.00 0.00 0.00 40 1012.3
20260504140949 17 108 3.2 6.4 0.00 0.00 0.00 43 1012.7
20260504140450 17 31 1.6 4.8 0.00 0.00 0.00 43 1012.7
20260504130450 13 0 0.0 0.0 0.00 0.00 0.00 49 1013.3
20260504110449 7 288 1.6 4.8 0.00 0.00 0.00 67 1013.5
20260504100449 5 0 0.0 0.0 0.00 0.00 0.00 78 1013.2
20260504081949 7 55 0.0 3.2 0.00 0.00 0.00 68 1012.7
20260504081450 7 0 0.0 0.0 0.00 0.00 0.00 69 1012.6
20260504080950 7 114 0.0 1.6 0.00 0.00 0.00 69 1012.6
20260504080450 7 12 0.0 1.6 0.00 0.00 0.00 67 1012.5
20260504050449 4 0 0.0 0.0 0.00 0.00 0.00 83 1012.1
20260504045950 4 0 0.0 0.0 0.00 0.00 0.00 83 1012.1
20260504045449 4 0 0.0 0.0 0.00 0.00 0.00 83 1012.0
20260504044949 4 0 0.0 0.0 0.00 0.00 0.00 82 1012.0
20260504044449 4 0 0.0 0.0 0.00 0.00 0.00 81 1012.0
20260504043950 4 0 0.0 0.0 0.00 0.00 0.00 81 1012.0
20260504043449 4 0 0.0 0.0 0.00 0.00 0.00 80 1012.0
20260504042950 4 0 0.0 0.0 0.00 0.00 0.00 80 1012.0
20260504042451 5 0 0.0 0.0 0.00 0.00 0.00 80 1012.0
20260504041949 5 0 0.0 0.0 0.00 0.00 0.00 79 1011.9
20260504041449 5 0 0.0 0.0 0.00 0.00 0.00 78 1011.9
20260504040949 5 0 0.0 0.0 0.00 0.00 0.00 77 1011.9
20260504040450 5 0 0.0 0.0 0.00 0.00 0.00 77 1011.9
20260504035949 5 0 0.0 0.0 0.00 0.00 0.00 76 1011.8
20260504035450 5 0 0.0 0.0 0.00 0.00 0.00 76 1011.9
20260504034949 5 0 0.0 0.0 0.00 0.00 0.00 76 1011.9
20260504034449 5 0 0.0 0.0 0.00 0.00 0.00 76 1011.8
20260504033951 5 0 0.0 0.0 0.00 0.00 0.00 76 1011.9
20260504033449 5 0 0.0 0.0 0.00 0.00 0.00 76 1011.9
20260504032949 5 0 0.0 0.0 0.00 0.00 0.00 75 1011.9
20260504032449 5 0 0.0 0.0 0.00 0.00 0.00 74 1011.9
20260504031949 5 0 0.0 0.0 0.00 0.00 0.00 73 1011.9
20260504031449 6 0 0.0 0.0 0.00 0.00 0.00 72 1011.9
20260504030949 6 0 0.0 0.0 0.00 0.00 0.00 72 1011.8
20260504030449 6 0 0.0 0.0 0.00 0.00 0.00 71 1011.8
20260504025950 6 0 0.0 0.0 0.00 0.00 0.00 71 1011.8
20260504025449 6 0 0.0 0.0 0.00 0.00 0.00 71 1011.8
20260504024949 6 0 0.0 0.0 0.00 0.00 0.00 71 1011.8
20260504024451 6 0 0.0 0.0 0.00 0.00 0.00 71 1011.9
20260504023951 6 0 0.0 0.0 0.00 0.00 0.00 71 1011.9
20260504023450 6 0 0.0 0.0 0.00 0.00 0.00 71 1011.9
20260504022949 6 0 0.0 0.0 0.00 0.00 0.00 71 1011.9
20260504022449 6 0 0.0 0.0 0.00 0.00 0.00 69 1011.9
20260504021949 6 0 0.0 0.0 0.00 0.00 0.00 68 1011.8
20260504021449 6 0 0.0 0.0 0.00 0.00 0.00 67 1011.8
20260504020949 7 0 0.0 0.0 0.00 0.00 0.00 66 1011.8
20260504020449 7 0 0.0 0.0 0.00 0.00 0.00 66 1011.8
20260504015950 7 0 0.0 0.0 0.00 0.00 0.00 66 1011.8
20260504015449 7 0 0.0 0.0 0.00 0.00 0.00 64 1011.8
20260504014949 7 0 0.0 0.0 0.00 0.00 0.00 64 1011.8
20260504014449 7 0 0.0 0.0 0.00 0.00 0.00 62 1011.8
20260504013949 7 0 0.0 0.0 0.00 0.00 0.00 61 1011.7
20260504013449 8 0 0.0 0.0 0.00 0.00 0.00 60 1011.7
20260504012949 8 0 0.0 0.0 0.00 0.00 0.00 60 1011.6
20260504012449 8 0 0.0 0.0 0.00 0.00 0.00 59 1011.6
20260504011949 8 0 0.0 0.0 0.00 0.00 0.00 57 1011.6
20260504011450 8 0 0.0 0.0 0.00 0.00 0.00 56 1011.5
20260504010949 9 0 0.0 0.0 0.00 0.00 0.00 54 1011.4
20260504010449 9 0 0.0 0.0 0.00 0.00 0.00 54 1011.3
20260504005949 10 0 0.0 0.0 0.00 0.00 0.00 53 1011.3
20260504005449 10 0 0.0 0.0 0.00 0.00 0.00 53 1011.2
20260504004949 10 0 0.0 0.0 0.00 0.00 0.00 50 1011.0
20260504004449 10 0 0.0 0.0 0.00 0.00 0.00 49 1010.9
20260504003949 11 0 0.0 0.0 0.00 0.00 0.00 48 1010.8
20260504003449 11 0 0.0 0.0 0.00 0.00 0.00 46 1010.8
20260504002949 11 0 0.0 0.0 0.00 0.00 0.00 45 1010.7
20260504002450 12 0 0.0 0.0 0.00 0.00 0.00 43 1010.6
20260504001949 12 0 0.0 0.0 0.00 0.00 0.00 43 1010.6
20260504001449 12 103 0.0 1.6 0.00 0.00 0.00 42 1010.5
20260504000949 12 112 0.0 1.6 0.00 0.00 0.00 41 1010.5
20260504000452 12 0 0.0 0.0 0.00 0.00 0.00 40 1010.4
20260503235950 13 106 0.0 1.6 0.00 0.00 0.00 39 1010.3
20260503235450 13 74 1.6 3.2 0.00 0.00 0.00 38 1010.2
20260503234950 13 73 0.0 1.6 0.00 0.00 0.00 39 1010.2
20260503234449 13 14 0.0 1.6 0.00 0.00 0.00 38 1010.1
20260503233950 13 0 0.0 0.0 0.00 0.00 0.00 39 1010.0
20260503233449 13 112 0.0 4.8 0.00 0.00 0.00 39 1009.9
20260503232949 13 92 1.6 3.2 0.00 0.00 0.00 37 1009.9
20260503232449 13 111 0.0 1.6 0.00 0.00 0.00 36 1009.8
20260503231951 13 38 1.6 4.8 0.00 0.00 0.00 36 1009.8
20260503231449 13 48 1.6 4.8 0.00 0.00 0.00 36 1009.7
20260503230950 13 103 0.0 1.6 0.00 0.00 0.00 35 1009.7
20260503230450 13 86 1.6 3.2 0.00 0.00 0.00 35 1009.7
20260503225950 13 27 3.2 6.4 0.00 0.00 0.00 34 1009.6
20260503225449 13 56 1.6 4.8 0.00 0.00 0.00 35 1009.5
20260503224949 13 78 0.0 3.2 0.00 0.00 0.00 34 1009.5
20260503224449 14 17 0.0 1.6 0.00 0.00 0.00 35 1009.5
20260503223949 14 63 1.6 4.8 0.00 0.00 0.00 33 1009.5
20260503223449 14 97 3.2 4.8 0.00 0.00 0.00 33 1009.5
20260503222950 14 22 3.2 4.8 0.00 0.00 0.00 34 1009.5
20260503222450 14 17 3.2 6.4 0.00 0.00 0.00 33 1009.3
20260503221949 14 139 3.2 6.4 0.00 0.00 0.00 33 1009.3
20260503221449 14 47 3.2 6.4 0.00 0.00 0.00 33 1009.4
20260503220949 14 74 3.2 6.4 0.00 0.00 0.00 33 1009.4
20260503220449 15 227 0.0 3.2 0.00 0.00 0.00 33 1009.5
20260503215950 15 37 3.2 4.8 0.00 0.00 0.00 33 1009.5
20260503215449 15 6 3.2 8.0 0.00 0.00 0.00 32 1009.4
20260503214950 15 65 3.2 6.4 0.00 0.00 0.00 32 1009.4
20260503214450 15 39 3.2 4.8 0.00 0.00 0.00 33 1009.2
20260503213949 15 59 3.2 6.4 0.00 0.00 0.00 33 1009.3
20260503213449 15 8 1.6 4.8 0.00 0.00 0.00 34 1009.3
20260503212950 15 311 3.2 8.0 0.00 0.00 0.00 33 1009.3
20260503212450 15 20 3.2 9.7 0.00 0.00 0.00 34 1009.4
20260503211949 15 58 3.2 4.8 0.00 0.00 0.00 34 1009.3
20260503211449 15 68 1.6 4.8 0.00 0.00 0.00 34 1009.3
20260503210949 15 15 1.6 4.8 0.00 0.00 0.00 36 1009.3
20260503210449 15 271 1.6 6.4 0.00 0.00 0.00 35 1009.3
20260503205949 15 37 3.2 6.4 0.00 0.00 0.00 34 1009.3
20260503205449 15 24 1.6 3.2 0.00 0.00 0.00 36 1009.3
20260503204949 15 58 4.8 12.9 0.00 0.00 0.00 34 1009.2
20260503204449 15 13 3.2 6.4 0.00 0.00 0.00 34 1009.2
20260503203949 15 43 3.2 11.3 0.00 0.00 0.00 35 1009.3
20260503203449 15 354 1.6 3.2 0.00 0.00 0.00 35 1009.4
20260503202949 14 77 1.6 4.8 0.00 0.00 0.00 35 1009.3
20260503202449 13 19 4.8 8.0 0.00 0.00 0.00 36 1009.3
20260503201950 13 20 1.6 4.8 0.00 0.00 0.00 38 1009.4
20260503201450 13 353 3.2 6.4 0.00 0.00 0.00 38 1009.3
20260503200949 14 63 3.2 6.4 0.00 0.00 0.00 37 1009.3
20260503200449 14 328 1.6 4.8 0.00 0.00 0.00 39 1009.4
20260503195950 15 14 3.2 6.4 0.00 0.00 0.00 39 1009.5
20260503195449 15 20 4.8 6.4 0.00 0.00 0.00 38 1009.6
20260503194949 15 12 3.2 6.4 0.00 0.00 0.00 37 1009.5
20260503194449 14 47 3.2 6.4 0.00 0.00 0.00 37 1009.5
20260503193950 13 85 3.2 6.4 0.00 0.00 0.00 38 1009.5
20260503193449 13 25 4.8 8.0 0.00 0.00 0.00 39 1009.7
20260503192949 13 58 3.2 8.0 0.00 0.00 0.00 39 1009.6
20260503192449 14 39 4.8 9.7 0.00 0.00 0.00 37 1009.7
20260503191949 14 97 4.8 11.3 0.00 0.00 0.00 38 1009.7
20260503191450 14 24 8.0 11.3 0.00 0.00 0.00 39 1009.7
20260503190951 13 83 3.2 4.8 0.00 0.00 0.00 39 1009.8
20260503190449 13 82 3.2 6.4 0.00 0.00 0.00 39 1009.8
20260503185949 13 33 4.8 9.7 0.00 0.00 0.00 39 1009.9
20260503185449 13 43 3.2 6.4 0.00 0.00 0.00 40 1010.0
20260503184950 12 48 3.2 8.0 0.00 0.00 0.00 40 1009.9
20260503184449 12 4 3.2 6.4 0.00 0.00 0.00 42 1010.0
20260503183949 12 36 3.2 4.8 0.00 0.00 0.00 43 1010.1
20260503183449 12 347 4.8 8.0 0.00 0.00 0.00 41 1010.1
20260503182950 13 76 4.8 8.0 0.00 0.00 0.00 40 1010.1
20260503182449 13 14 4.8 11.3 0.00 0.00 0.00 43 1010.2
20260503181949 13 33 3.2 9.7 0.00 0.00 0.00 41 1010.0
20260503181450 13 25 3.2 9.7 0.00 0.00 0.00 40 1010.0
20260503180949 13 21 4.8 8.0 0.00 0.00 0.00 41 1010.0
20260503180450 13 32 1.6 4.8 0.00 0.00 0.00 41 1010.0
20260503175949 12 63 3.2 6.4 0.00 0.00 0.00 40 1009.9
20260503175449 13 15 3.2 8.0 0.00 0.00 0.00 39 1009.9
20260503174950 13 20 4.8 12.9 0.00 0.00 0.00 40 1010.0
20260503174449 13 33 3.2 6.4 0.00 0.00 0.00 39 1009.9
20260503173949 13 33 4.8 9.7 0.00 0.00 0.00 39 1010.0
20260503173450 13 21 3.2 9.7 0.00 0.00 0.00 38 1009.9
20260503172951 12 85 3.2 6.4 0.00 0.00 0.00 38 1009.8
20260503172449 12 40 4.8 6.4 0.00 0.00 0.00 39 1010.0
20260503171949 12 7 4.8 9.7 0.00 0.00 0.00 37 1009.9
20260503171450 12 0 4.8 8.0 0.00 0.00 0.00 39 1009.9
20260503170950 12 25 4.8 12.9 0.00 0.00 0.00 40 1010.1
20260503170449 12 11 4.8 9.7 0.00 0.00 0.00 38 1010.1